Dansville, NY

10:32 AM EDT on September 19, 2019 (GMT -0400)
Dansville Municipal

Weather History for KDSV - July, 2019

Change the Weather History Date:

Sunday, July 21, 2019

  Actual Average Record
Temperature  
Mean Temperature 76 °F -  
Max Temperature 84 °F 83 °F 102 °F (2011)
Min Temperature 66 °F 59 °F 44 °F (1965)
Cooling Degree Days 12    
Growing Degree Days 26 (Base 50)    
Moisture  
Dew Point 68 °F    
Average Humidity 69    
Maximum Humidity 90    
Minimum Humidity 49    
Precipitation  
Precipitation 0.00 in - - ()
Sea Level Pressure  
Sea Level Pressure 29.89 in    
Wind  
Wind Speed 7 mph (NW)    
Max Wind Speed 17 mph    
Max Gust Speed 22 mph    
Visibility 10 miles    
Events      
Averages and records for this station are not official NWS values.
T = Trace of Precipitation, MM = Missing Value Source: NWS Daily Summary

Daily Weather History Graph

Daily Weather History Graph

Search for Another Location

Airport or City:

Astronomy

Jul. 21, 2019 Rise Set
Actual Time 5:51 AM EDT 8:42 PM EDT
Civil Twilight 5:18 AM EDT 9:15 PM EDT
Nautical Twilight 4:36 AM EDT 9:57 PM EDT
Astronomical Twilight 3:47 AM EDT 10:45 PM EDT
Moon 11:30 PM EDT (7/21) 10:14 AM EDT (7/21)
Length of Visible Light 15h 56m
Length of Day
14h 50m
Waning Gibbous, 80% of the Moon is Illuminated
Jul 21
Waning Gibbous
Jul 24
Last Quarter
Jul 31
New
Aug 7
First Quarter
Aug 15
Full

Hourly Weather History & Observations

Time (EDT) Temp. Heat Index Dew Point Humidity Pressure Visibility Wind Dir Wind Speed Gust Speed Precip Events Conditions
12:54 AM 78.1 °F - 68.0 °F 71% 29.84 in 10.0 mi South 8.1 mph - N/A   Clear
1:54 AM 75.9 °F - 68.0 °F 76% 29.81 in 10.0 mi SE 4.6 mph - N/A   Clear
2:54 AM 75.0 °F - 69.1 °F 82% 29.82 in 10.0 mi South 5.8 mph - N/A   Mostly Cloudy
3:54 AM 75.9 °F - 68.0 °F 76% 29.83 in 10.0 mi Variable 3.5 mph - N/A   Overcast
4:54 AM 80.1 °F 82.7 °F 68.0 °F 67% 29.84 in 10.0 mi Variable 3.5 mph - N/A   Clear
5:54 AM 75.0 °F - 69.1 °F 82% 29.87 in 10.0 mi Calm Calm - N/A   Clear
6:54 AM 77.0 °F - 70.0 °F 79% 29.89 in 10.0 mi Calm Calm - N/A   Scattered Clouds
7:54 AM 81.0 °F 84.4 °F 70.0 °F 69% 29.88 in 10.0 mi ENE 3.5 mph - N/A   Clear
8:54 AM 82.9 °F 87.0 °F 70.0 °F 65% 29.87 in 10.0 mi North 5.8 mph - N/A   Clear
9:54 AM 82.0 °F 86.3 °F 71.1 °F 69% 29.88 in 10.0 mi NNW 10.4 mph - N/A   Mostly Cloudy
10:54 AM 82.9 °F 87.0 °F 70.0 °F 65% 29.89 in 10.0 mi NNW 12.7 mph - N/A   Scattered Clouds
11:54 AM 84.9 °F 89.4 °F 70.0 °F 61% 29.89 in 10.0 mi NNW 13.8 mph - N/A   Scattered Clouds
12:54 PM 84.9 °F 88.8 °F 69.1 °F 59% 29.90 in 10.0 mi NNW 17.3 mph 21.9 mph N/A   Scattered Clouds
1:54 PM 82.9 °F 85.8 °F 68.0 °F 60% 29.91 in 10.0 mi NW 13.8 mph - N/A   Overcast
2:54 PM 84.0 °F 87.0 °F 68.0 °F 58% 29.90 in 10.0 mi NW 12.7 mph - N/A   Mostly Cloudy
3:54 PM 82.9 °F 85.8 °F 68.0 °F 60% 29.91 in 10.0 mi NW 11.5 mph - N/A   Overcast
4:54 PM 82.9 °F 87.0 °F 70.0 °F 65% 29.90 in 10.0 mi NNW 6.9 mph - N/A   Mostly Cloudy
5:54 PM 82.9 °F 85.0 °F 66.0 °F 56% 29.90 in 10.0 mi NW 10.4 mph - N/A   Scattered Clouds
6:54 PM 82.9 °F 83.7 °F 62.1 °F 49% 29.92 in 10.0 mi WNW 6.9 mph - N/A   Clear
7:54 PM 80.1 °F 81.5 °F 63.0 °F 56% 29.94 in 10.0 mi WNW 3.5 mph - N/A   Scattered Clouds
8:54 PM 75.0 °F - 64.0 °F 69% 29.94 in 10.0 mi Calm Calm - N/A   Clear
9:54 PM 72.0 °F - 64.9 °F 78% 29.95 in 10.0 mi Calm Calm - N/A   Clear
10:54 PM 69.1 °F - 64.0 °F 84% 29.95 in 10.0 mi Calm Calm - N/A   Clear
11:54 PM 66.9 °F - 64.0 °F 90% 29.95 in 10.0 mi SE 4.6 mph - N/A   Clear